QPF
0.00 0.00 0.00 0.00 0.00 0.00 0.00 0.00 0.00 0.00 0.01 0.01 0.00 0.00 0.00 0.00 0.00 0.00 0.00 0.00 0.00 0.00 0.00 0.00 0.00 0.00 0.00 0.00 0.00 0.00 0.01 0.01 0.01 0.00 0.01 0.01 0.01 0.00 0.00 0.02 0.02 0.00 0.00
0.00 0.00 0.00 0.00 0.00 0.00 0.00 0.00 0.00 0.00 0.01 0.01 0.00 0.00 0.00 0.00 0.00 0.00 0.00 0.00 0.00 0.00 0.00 0.00 0.00 0.00 0.00 0.00 0.00 0.00 0.01 0.01 0.01 0.00 0.00 0.00 0.00 0.00 0.00 0.02 0.02 0.01 0.00
0.00 0.00 0.00 0.00 0.00 0.00 0.00 0.00 0.00 0.00 0.00 0.00 0.00 0.00 0.00 0.00 0.00 0.00 0.00 0.01 0.01 0.01 0.01 0.01 0.01 0.00 0.01 0.01 0.00 0.00 0.01 0.03 0.02 0.00 0.00 0.00 0.00 0.00 0.00 0.00 0.01 0.01 0.00
0.00 0.00 0.00 0.00 0.00 0.00 0.00 0.00 0.00 0.00 0.00 0.00 0.00 0.00 0.00 0.00 0.00 0.00 0.01 0.02 0.04 0.06 0.09 0.08 0.05 0.04 0.05 0.03 0.02 0.01 0.04 0.06 0.02 0.01 0.00 0.00 0.00 0.00 0.00 0.00 0.00 0.00 0.00
0.00 0.00 0.00 0.00 0.00 0.00 0.00 0.00 0.00 0.00 0.00 0.00 0.00 0.00 0.00 0.00 0.00 0.00 0.00 0.02 0.06 0.10 0.13 0.14 0.11 0.10 0.09 0.06 0.03 0.02 0.06 0.07 0.02 0.00 0.00 0.00 0.00 0.00 0.00 0.00 0.00 0.00 0.00
0.00 0.00 0.00 0.00 0.00 0.00 0.00 0.00 0.00 0.00 0.00 0.00 0.01 0.00 0.01 0.01 0.01 0.00 0.00 0.01 0.03 0.06 0.10 0.11 0.11 0.12 0.11 0.07 0.04 0.03 0.07 0.07 0.02 0.00 0.00 0.01 0.01 0.01 0.01 0.00 0.00 0.00 0.00
0.00 0.00 0.00 0.01 0.01 0.01 0.00 0.00 0.00 0.00 0.00 0.00 0.01 0.01 0.01 0.01 0.01 0.01 0.01 0.01 0.01 0.02 0.05 0.08 0.10 0.10 0.10 0.08 0.06 0.07 0.11 0.07 0.02 0.00 0.00 0.01 0.03 0.07 0.06 0.01 0.00 0.00 0.00
0.00 0.00 0.01 0.01 0.01 0.02 0.01 0.01 0.01 0.01 0.01 0.01 0.01 0.01 0.01 0.01 0.01 0.02 0.02 0.01 0.01 0.01 0.02 0.03 0.06 0.08 0.08 0.07 0.07 0.09 0.10 0.05 0.03 0.00 0.00 0.01 0.04 0.13 0.13 0.04 0.01 0.00 0.00
0.00 0.00 0.00 0.00 0.01 0.01 0.02 0.03 0.03 0.03 0.03 0.02 0.02 0.02 0.02 0.01 0.01 0.03 0.03 0.02 0.02 0.02 0.01 0.01 0.02 0.03 0.04 0.05 0.06 0.06 0.06 0.03 0.01 0.00 0.00 0.01 0.05 0.16 0.18 0.09 0.03 0.01 0.00
0.00 0.00 0.00 0.00 0.00 0.00 0.01 0.04 0.06 0.07 0.06 0.05 0.04 0.03 0.02 0.02 0.01 0.02 0.02 0.02 0.02 0.02 0.02 0.01 0.01 0.01 0.01 0.02 0.03 0.03 0.03 0.02 0.01 0.00 0.00 0.01 0.03 0.15 0.20 0.14 0.06 0.02 0.00
0.00 0.00 0.00 0.00 0.00 0.00 0.00 0.02 0.04 0.06 0.06 0.05 0.05 0.05 0.05 0.02 0.01 0.01 0.01 0.01 0.01 0.02 0.02 0.02 0.02 0.01 0.01 0.00 0.00 0.00 0.01 0.00 0.00 0.00 0.00 0.00 0.03 0.16 0.22 0.16 0.08 0.02 0.01
0.00 0.00 0.00 0.00 0.00 0.00 0.00 0.01 0.02 0.03 0.03 0.04 0.04 0.05 0.06 0.06 0.04 0.03 0.02 0.01 0.02 0.02 0.03 0.03 0.02 0.01 0.01 0.00 0.00 0.00 0.00 0.00 0.00 0.00 0.00 0.00 0.02 0.12 0.20 0.19 0.12 0.06 0.02
0.00 0.00 0.00 0.00 0.00 0.00 0.00 0.00 0.00 0.01 0.02 0.03 0.04 0.06 0.08 0.11 0.11 0.11 0.11 0.09 0.05 0.04 0.04 0.04 0.03 0.02 0.01 0.00 0.00 0.00 0.00 0.00 0.00 0.00 0.00 0.00 0.00 0.05 0.14 0.19 0.17 0.10 0.05
0.00 0.00 0.00 0.00 0.00 0.00 0.00 0.00 0.00 0.00 0.00 0.01 0.02 0.04 0.05 0.07 0.10 0.12 0.14 0.13 0.11 0.11 0.10 0.08 0.05 0.03 0.01 0.00 0.00 0.00 0.00 0.00 0.00 0.00 0.00 0.00 0.00 0.01 0.05 0.12 0.15 0.13 0.08
0.00 0.00 0.00 0.00 0.00 0.00 0.00 0.00 0.00 0.00 0.00 0.00 0.00 0.01 0.02 0.03 0.04 0.05 0.05 0.06 0.08 0.10 0.11 0.11 0.09 0.06 0.03 0.01 0.00 0.00 0.00 0.00 0.00 0.00 0.00 0.00 0.00 0.01 0.02 0.05 0.09 0.11 0.11
0.00 0.00 0.00 0.00 0.00 0.00 0.00 0.00 0.00 0.00 0.00 0.00 0.00 0.00 0.00 0.01 0.01 0.01 0.01 0.01 0.02 0.03 0.03 0.04 0.03 0.03 0.02 0.01 0.00 0.00 0.00 0.00 0.00 0.00 0.00 0.00 0.00 0.01 0.02 0.05 0.08 0.09 0.09
0.00 0.00 0.00 0.00 0.00 0.00 0.00 0.00 0.00 0.00 0.00 0.00 0.00 0.00 0.00 0.00 0.00 0.00 0.00 0.00 0.00 0.00 0.01 0.01 0.01 0.00 0.00 0.00 0.00 0.00 0.00 0.00 0.00 0.00 0.00 0.00 0.01 0.01 0.02 0.05 0.08 0.09 0.10
0.00 0.00 0.00 0.00 0.00 0.00 0.00 0.00 0.00 0.00 0.00 0.00 0.00 0.00 0.00 0.00 0.00 0.00 0.00 0.00 0.00 0.00 0.00 0.00 0.00 0.00 0.00 0.00 0.00 0.00 0.00 0.00 0.00 0.00 0.00 0.00 0.01 0.01 0.02 0.04 0.08 0.09 0.11
0.00 0.00 0.00 0.00 0.00 0.00 0.00 0.00 0.00 0.00 0.00 0.00 0.00 0.00 0.00 0.00 0.00 0.00 0.00 0.00 0.00 0.00 0.00 0.00 0.00 0.00 0.00 0.00 0.00 0.00 0.00 0.00 0.00 0.00 0.01 0.01 0.01 0.01 0.02 0.03 0.06 0.08 0.11
0.00 0.00 0.00 0.00 0.00 0.00 0.00 0.00 0.00 0.00 0.00 0.00 0.00 0.00 0.00 0.00 0.00 0.00 0.00 0.00 0.00 0.00 0.00 0.00 0.00 0.00 0.00 0.00 0.00 0.00 0.00 0.00 0.00 0.00 0.01 0.01 0.01 0.01 0.02 0.02 0.03 0.04 0.06
0.00 0.00 0.00 0.00 0.00 0.00 0.00 0.00 0.00 0.00 0.00 0.00 0.00 0.00 0.00 0.00 0.00 0.00 0.00 0.00 0.00 0.00 0.00 0.00 0.00 0.00 0.00 0.00 0.00 0.00 0.00 0.00 0.00 0.00 0.00 0.01 0.01 0.01 0.01 0.02 0.02 0.02 0.03
0.00 0.00 0.00 0.00 0.00 0.00 0.00 0.00 0.00 0.00 0.00 0.00 0.00 0.00 0.00 0.00 0.00 0.00 0.00 0.00 0.00 0.00 0.00 0.00 0.00 0.00 0.00 0.01 0.01 0.00 0.00 0.00 0.00 0.00 0.00 0.00 0.00 0.01 0.01 0.01 0.02 0.02 0.02
0.00 0.00 0.00 0.00 0.00 0.00 0.00 0.00 0.00 0.00 0.00 0.00 0.00 0.00 0.00 0.00 0.00 0.00 0.00 0.00 0.00 0.00 0.00 0.00 0.01 0.01 0.01 0.01 0.02 0.01 0.00 0.00 0.00 0.00 0.00 0.00 0.00 0.00 0.01 0.01 0.01 0.02 0.02
0.00 0.00 0.00 0.00 0.00 0.00 0.00 0.00 0.00 0.00 0.00 0.00 0.00 0.00 0.00 0.00 0.00 0.00 0.00 0.00 0.00 0.00 0.00 0.00 0.01 0.01 0.01 0.01 0.02 0.02 0.01 0.00 0.00 0.00 0.00 0.00 0.00 0.00 0.00 0.01 0.02 0.02 0.03
0.00 0.00 0.00 0.00 0.00 0.00 0.00 0.00 0.00 0.00 0.00 0.00 0.00 0.00 0.00 0.00 0.00 0.00 0.00 0.00 0.00 0.00 0.00 0.00 0.01 0.01 0.02 0.02 0.02 0.02 0.02 0.01 0.00 0.00 0.00 0.00 0.00 0.00 0.00 0.01 0.01 0.03 0.04
0.00 0.00 0.00 0.00 0.00 0.00 0.00 0.00 0.00 0.00 0.00 0.00 0.00 0.00 0.00 0.00 0.00 0.00 0.00 0.00 0.00 0.00 0.00 0.01 0.01 0.02 0.03 0.04 0.03 0.03 0.02 0.01 0.00 0.00 0.00 0.00 0.00 0.00 0.00 0.01 0.01 0.02 0.04
MSLP
1014.20 1013.71 1013.42 1013.34 1013.45 1013.68 1013.95 1014.17 1014.30 1014.31 1014.22 1014.07 1013.92 1013.82 1013.81 1013.89 1014.02 1014.18 1014.31 1014.40 1014.42 1014.41 1014.37 1014.35 1014.37 1014.43 1014.53 1014.65 1014.75 1014.82 1014.84 1014.83 1014.79 1014.77 1014.77 1014.81 1014.90 1015.01 1015.13 1015.23 1015.29 1015.33 1015.34
1014.36 1013.89 1013.60 1013.53 1013.63 1013.86 1014.13 1014.37 1014.50 1014.52 1014.45 1014.32 1014.20 1014.13 1014.14 1014.21 1014.34 1014.47 1014.57 1014.61 1014.59 1014.53 1014.47 1014.42 1014.42 1014.47 1014.57 1014.68 1014.77 1014.84 1014.87 1014.86 1014.84 1014.84 1014.86 1014.92 1015.01 1015.12 1015.22 1015.30 1015.34 1015.36 1015.37
1014.53 1014.08 1013.79 1013.71 1013.81 1014.03 1014.29 1014.51 1014.65 1014.68 1014.63 1014.53 1014.43 1014.39 1014.41 1014.49 1014.59 1014.69 1014.74 1014.73 1014.65 1014.55 1014.44 1014.37 1014.35 1014.40 1014.49 1014.60 1014.70 1014.78 1014.83 1014.86 1014.87 1014.90 1014.95 1015.03 1015.13 1015.24 1015.33 1015.39 1015.42 1015.43 1015.43
1014.76 1014.31 1014.02 1013.93 1014.01 1014.21 1014.44 1014.64 1014.76 1014.78 1014.73 1014.65 1014.57 1014.54 1014.56 1014.63 1014.71 1014.77 1014.78 1014.72 1014.60 1014.45 1014.32 1014.22 1014.19 1014.23 1014.32 1014.45 1014.57 1014.68 1014.76 1014.82 1014.87 1014.94 1015.02 1015.13 1015.24 1015.34 1015.43 1015.48 1015.50 1015.51 1015.51
1015.11 1014.65 1014.35 1014.25 1014.30 1014.45 1014.63 1014.78 1014.85 1014.84 1014.76 1014.66 1014.58 1014.54 1014.56 1014.62 1014.68 1014.71 1014.68 1014.59 1014.44 1014.28 1014.13 1014.03 1013.99 1014.04 1014.14 1014.27 1014.42 1014.55 1014.66 1014.76 1014.85 1014.95 1015.05 1015.18 1015.30 1015.41 1015.49 1015.54 1015.56 1015.58 1015.60
1015.64 1015.17 1014.85 1014.71 1014.72 1014.81 1014.91 1014.97 1014.96 1014.88 1014.74 1014.60 1014.48 1014.43 1014.42 1014.46 1014.50 1014.52 1014.48 1014.37 1014.23 1014.06 1013.93 1013.84 1013.82 1013.87 1013.98 1014.13 1014.28 1014.43 1014.56 1014.68 1014.79 1014.91 1015.03 1015.16 1015.29 1015.39 1015.48 1015.54 1015.57 1015.61 1015.65
1016.37 1015.88 1015.54 1015.37 1015.31 1015.31 1015.32 1015.27 1015.14 1014.96 1014.73 1014.52 1014.35 1014.25 1014.21 1014.23 1014.25 1014.26 1014.22 1014.13 1014.00 1013.87 1013.76 1013.69 1013.70 1013.77 1013.89 1014.04 1014.19 1014.34 1014.48 1014.59 1014.71 1014.82 1014.94 1015.06 1015.18 1015.29 1015.38 1015.45 1015.51 1015.57 1015.65
1017.29 1016.78 1016.43 1016.21 1016.08 1015.99 1015.88 1015.70 1015.45 1015.14 1014.81 1014.50 1014.26 1014.11 1014.03 1014.01 1014.01 1014.01 1013.98 1013.91 1013.81 1013.71 1013.64 1013.62 1013.65 1013.74 1013.87 1014.01 1014.16 1014.29 1014.40 1014.50 1014.60 1014.69 1014.79 1014.90 1015.00 1015.10 1015.20 1015.28 1015.37 1015.47 1015.58
1018.35 1017.84 1017.47 1017.21 1017.02 1016.83 1016.59 1016.28 1015.90 1015.46 1015.03 1014.64 1014.32 1014.10 1013.97 1013.90 1013.87 1013.85 1013.81 1013.75 1013.68 1013.62 1013.58 1013.59 1013.65 1013.75 1013.89 1014.02 1014.15 1014.26 1014.35 1014.42 1014.48 1014.53 1014.60 1014.68 1014.76 1014.85 1014.94 1015.04 1015.16 1015.29 1015.44
1019.49 1018.99 1018.62 1018.33 1018.06 1017.78 1017.43 1017.00 1016.50 1015.96 1015.43 1014.96 1014.58 1014.29 1014.10 1013.97 1013.89 1013.82 1013.75 1013.68 1013.61 1013.56 1013.54 1013.57 1013.65 1013.77 1013.90 1014.03 1014.14 1014.23 1014.29 1014.33 1014.35 1014.37 1014.40 1014.44 1014.49 1014.56 1014.65 1014.76 1014.89 1015.05 1015.25
1020.64 1020.18 1019.81 1019.49 1019.17 1018.79 1018.34 1017.81 1017.22 1016.61 1016.02 1015.49 1015.06 1014.71 1014.45 1014.25 1014.09 1013.95 1013.81 1013.69 1013.58 1013.51 1013.49 1013.52 1013.61 1013.73 1013.86 1013.99 1014.10 1014.17 1014.22 1014.23 1014.23 1014.22 1014.21 1014.21 1014.23 1014.27 1014.34 1014.45 1014.60 1014.78 1015.01
1021.77 1021.36 1021.00 1020.65 1020.27 1019.81 1019.28 1018.67 1018.02 1017.36 1016.74 1016.20 1015.73 1015.34 1015.01 1014.73 1014.47 1014.22 1013.98 1013.76 1013.58 1013.46 1013.40 1013.41 1013.49 1013.60 1013.74 1013.87 1013.99 1014.07 1014.11 1014.12 1014.11 1014.07 1014.03 1014.00 1013.98 1013.99 1014.04 1014.13 1014.28 1014.48 1014.73
1022.86 1022.50 1022.15 1021.77 1021.32 1020.79 1020.17 1019.51 1018.82 1018.16 1017.54 1017.00 1016.53 1016.10 1015.72 1015.35 1014.98 1014.60 1014.24 1013.90 1013.62 1013.41 1013.28 1013.25 1013.29 1013.39 1013.53 1013.67 1013.79 1013.89 1013.96 1013.98 1013.97 1013.93 1013.87 1013.80 1013.75 1013.72 1013.74 1013.81 1013.95 1014.15 1014.41
1023.91 1023.58 1023.23 1022.80 1022.28 1021.67 1020.99 1020.28 1019.58 1018.93 1018.34 1017.83 1017.37 1016.93 1016.50 1016.05 1015.56 1015.06 1014.56 1014.09 1013.68 1013.37 1013.16 1013.06 1013.05 1013.12 1013.24 1013.39 1013.53 1013.65 1013.74 1013.78 1013.79 1013.75 1013.68 1013.60 1013.51 1013.45 1013.43 1013.47 1013.59 1013.79 1014.05
1024.93 1024.61 1024.23 1023.73 1023.13 1022.43 1021.69 1020.95 1020.25 1019.63 1019.09 1018.61 1018.18 1017.75 1017.28 1016.76 1016.18 1015.56 1014.93 1014.33 1013.81 1013.38 1013.07 1012.89 1012.82 1012.84 1012.93 1013.06 1013.20 1013.33 1013.45 1013.52 1013.54 1013.52 1013.45 1013.34 1013.23 1013.13 1013.08 1013.09 1013.19 1013.38 1013.65
1025.90 1025.57 1025.13 1024.55 1023.85 1023.07 1022.27 1021.51 1020.81 1020.22 1019.73 1019.31 1018.91 1018.48 1017.99 1017.42 1016.77 1016.06 1015.33 1014.64 1014.01 1013.49 1013.09 1012.81 1012.66 1012.61 1012.64 1012.72 1012.84 1012.96 1013.08 1013.17 1013.21 1013.20 1013.13 1013.02 1012.89 1012.76 1012.68 1012.66 1012.74 1012.92 1013.19
1026.80 1026.43 1025.92 1025.25 1024.46 1023.61 1022.76 1021.97 1021.29 1020.73 1020.28 1019.90 1019.52 1019.11 1018.61 1018.01 1017.32 1016.55 1015.77 1015.00 1014.31 1013.71 1013.22 1012.86 1012.61 1012.46 1012.40 1012.41 1012.47 1012.55 1012.65 1012.73 1012.78 1012.78 1012.72 1012.61 1012.47 1012.33 1012.22 1012.19 1012.25 1012.42 1012.69
1027.61 1027.17 1026.59 1025.84 1024.98 1024.07 1023.19 1022.39 1021.72 1021.19 1020.76 1020.40 1020.04 1019.63 1019.12 1018.51 1017.80 1017.02 1016.21 1015.42 1014.68 1014.03 1013.48 1013.03 1012.67 1012.41 1012.24 1012.14 1012.11 1012.12 1012.17 1012.23 1012.28 1012.28 1012.23 1012.13 1011.99 1011.85 1011.73 1011.68 1011.73 1011.89 1012.16
1028.29 1027.79 1027.14 1026.33 1025.43 1024.49 1023.60 1022.81 1022.15 1021.63 1021.22 1020.85 1020.49 1020.06 1019.54 1018.92 1018.20 1017.43 1016.63 1015.85 1015.11 1014.43 1013.83 1013.29 1012.83 1012.45 1012.14 1011.92 1011.77 1011.69 1011.68 1011.70 1011.73 1011.73 1011.70 1011.62 1011.49 1011.36 1011.24 1011.18 1011.22 1011.36 1011.62
1028.83 1028.29 1027.59 1026.76 1025.84 1024.92 1024.04 1023.27 1022.63 1022.11 1021.68 1021.29 1020.89 1020.42 1019.88 1019.24 1018.53 1017.77 1017.00 1016.25 1015.52 1014.84 1014.19 1013.59 1013.03 1012.52 1012.08 1011.72 1011.45 1011.27 1011.18 1011.16 1011.17 1011.19 1011.17 1011.12 1011.01 1010.89 1010.78 1010.72 1010.74 1010.87 1011.10
1029.26 1028.69 1027.98 1027.15 1026.27 1025.38 1024.54 1023.81 1023.18 1022.65 1022.19 1021.74 1021.28 1020.75 1020.15 1019.48 1018.77 1018.02 1017.28 1016.55 1015.85 1015.17 1014.49 1013.83 1013.18 1012.56 1011.99 1011.50 1011.12 1010.86 1010.71 1010.65 1010.65 1010.68 1010.69 1010.67 1010.60 1010.50 1010.40 1010.33 1010.33 1010.43 1010.63
1029.63 1029.05 1028.35 1027.57 1026.73 1025.90 1025.12 1024.42 1023.80 1023.25 1022.73 1022.21 1021.65 1021.04 1020.37 1019.65 1018.91 1018.16 1017.43 1016.72 1016.03 1015.34 1014.65 1013.93 1013.21 1012.49 1011.83 1011.24 1010.77 1010.44 1010.25 1010.18 1010.19 1010.24 1010.29 1010.30 1010.26 1010.18 1010.09 1010.01 1009.99 1010.04 1010.19
1029.99 1029.43 1028.77 1028.03 1027.26 1026.50 1025.77 1025.09 1024.47 1023.88 1023.29 1022.68 1022.02 1021.30 1020.53 1019.74 1018.95 1018.17 1017.43 1016.71 1016.01 1015.31 1014.58 1013.82 1013.04 1012.26 1011.53 1010.88 1010.37 1010.01 1009.80 1009.74 1009.77 1009.86 1009.95 1010.01 1010.01 1009.95 1009.86 1009.77 1009.71 1009.72 1009.81
1030.41 1029.87 1029.25 1028.57 1027.86 1027.15 1026.45 1025.79 1025.15 1024.51 1023.84 1023.13 1022.35 1021.52 1020.64 1019.76 1018.89 1018.05 1017.27 1016.51 1015.78 1015.03 1014.26 1013.46 1012.64 1011.82 1011.06 1010.40 1009.88 1009.52 1009.34 1009.31 1009.39 1009.53 1009.67 1009.77 1009.80 1009.77 1009.69 1009.58 1009.49 1009.45 1009.49
1030.91 1030.41 1029.82 1029.18 1028.50 1027.82 1027.14 1026.47 1025.80 1025.09 1024.34 1023.52 1022.63 1021.68 1020.70 1019.72 1018.75 1017.84 1016.97 1016.15 1015.35 1014.55 1013.72 1012.88 1012.02 1011.19 1010.42 1009.77 1009.28 1008.97 1008.84 1008.86 1009.00 1009.20 1009.39 1009.53 1009.61 1009.60 1009.53 1009.42 1009.31 1009.24 1009.23
1031.50 1031.02 1030.45 1029.83 1029.17 1028.48 1027.80 1027.09 1026.37 1025.60 1024.76 1023.85 1022.86 1021.81 1020.72 1019.64 1018.58 1017.56 1016.60 1015.69 1014.79 1013.91 1013.02 1012.13 1011.24 1010.40 1009.65 1009.04 1008.60 1008.35 1008.28 1008.37 1008.57 1008.82 1009.07 1009.27 1009.39 1009.41 1009.37 1009.27 1009.17 1009.08 1009.04
Thickness
5736 5738 5738 5737 5735 5734 5733 5732 5731 5730 5730 5730 5730 5730 5730 5729 5729 5728 5728 5728 5728 5729 5730 5730 5730 5730 5731 5731 5731 5731 5731 5731 5731 5732 5732 5732 5732 5731 5730 5730 5730 5731 5731
5736 5734 5733 5732 5730 5728 5727 5726 5725 5725 5725 5724 5724 5724 5724 5724 5724 5724 5724 5724 5725 5725 5726 5726 5727 5727 5727 5727 5728 5727 5727 5727 5727 5727 5727 5728 5728 5728 5728 5727 5728 5728 5728
5730 5728 5726 5724 5722 5721 5721 5720 5719 5719 5718 5718 5718 5718 5718 5719 5719 5719 5719 5720 5720 5721 5722 5723 5723 5723 5723 5723 5723 5723 5723 5723 5723 5723 5723 5723 5724 5724 5724 5724 5724 5725 5725
5721 5719 5718 5716 5715 5715 5714 5714 5713 5712 5712 5711 5711 5711 5712 5712 5713 5714 5714 5715 5716 5716 5717 5718 5719 5720 5720 5720 5720 5720 5719 5719 5719 5719 5719 5719 5720 5721 5721 5721 5721 5722 5722
5712 5711 5710 5709 5708 5708 5708 5707 5707 5706 5706 5705 5705 5705 5705 5706 5707 5708 5709 5710 5711 5711 5712 5714 5715 5715 5716 5717 5716 5716 5715 5715 5715 5716 5716 5716 5717 5717 5717 5717 5717 5718 5718
5703 5702 5702 5701 5701 5701 5700 5700 5699 5699 5700 5700 5700 5700 5700 5701 5701 5702 5703 5704 5705 5706 5707 5708 5709 5710 5711 5711 5712 5712 5711 5711 5711 5711 5712 5713 5713 5714 5714 5713 5713 5714 5714
5691 5692 5692 5693 5694 5694 5694 5693 5693 5693 5693 5693 5694 5694 5694 5695 5695 5696 5698 5699 5700 5700 5701 5702 5703 5704 5704 5705 5706 5707 5706 5707 5707 5707 5708 5709 5710 5710 5711 5710 5709 5710 5710
5678 5679 5680 5682 5684 5685 5686 5686 5686 5685 5686 5686 5687 5687 5688 5689 5689 5690 5691 5692 5693 5694 5695 5695 5696 5698 5699 5700 5700 5701 5702 5703 5704 5703 5703 5705 5707 5708 5708 5707 5706 5706 5706
5666 5666 5666 5667 5670 5673 5675 5676 5676 5677 5677 5678 5679 5680 5681 5682 5683 5683 5684 5686 5687 5687 5688 5689 5690 5691 5692 5693 5695 5696 5697 5698 5699 5699 5700 5701 5703 5704 5705 5704 5703 5702 5702
5651 5651 5651 5653 5656 5659 5662 5663 5665 5666 5667 5668 5670 5671 5673 5674 5675 5676 5676 5678 5679 5681 5681 5682 5683 5684 5685 5687 5688 5690 5691 5693 5694 5695 5695 5696 5697 5700 5701 5701 5701 5700 5700
5636 5636 5636 5638 5640 5643 5646 5648 5650 5652 5653 5656 5659 5661 5664 5666 5667 5667 5668 5669 5670 5672 5674 5675 5676 5677 5678 5679 5681 5683 5685 5686 5688 5689 5691 5691 5693 5695 5696 5697 5698 5698 5698
5619 5620 5621 5623 5624 5627 5629 5632 5633 5635 5637 5639 5643 5647 5652 5655 5658 5659 5661 5661 5662 5663 5665 5667 5668 5669 5671 5672 5673 5675 5677 5679 5682 5684 5686 5687 5688 5690 5692 5694 5694 5694 5695
5602 5605 5607 5607 5609 5611 5613 5615 5616 5618 5621 5623 5627 5631 5636 5642 5645 5649 5651 5652 5654 5655 5657 5659 5660 5662 5663 5664 5666 5668 5670 5672 5675 5678 5680 5682 5683 5685 5688 5690 5691 5691 5692
5590 5591 5592 5593 5594 5595 5596 5598 5599 5601 5603 5605 5608 5613 5618 5623 5629 5634 5639 5642 5644 5646 5648 5650 5651 5653 5655 5656 5658 5660 5663 5665 5668 5671 5674 5677 5679 5680 5683 5685 5687 5688 5689
5576 5576 5577 5578 5578 5579 5580 5581 5582 5584 5586 5589 5592 5596 5599 5604 5609 5616 5623 5628 5632 5636 5639 5641 5643 5645 5647 5649 5651 5653 5656 5659 5661 5665 5668 5672 5674 5676 5678 5682 5684 5685 5686
5560 5559 5560 5562 5561 5562 5563 5564 5566 5567 5569 5572 5575 5578 5582 5586 5590 5596 5604 5611 5617 5622 5627 5631 5634 5636 5638 5641 5644 5646 5649 5652 5655 5659 5663 5666 5670 5672 5674 5677 5680 5681 5683
5543 5543 5543 5545 5543 5544 5545 5547 5548 5550 5551 5554 5556 5560 5563 5567 5572 5577 5584 5592 5599 5607 5614 5619 5623 5626 5628 5631 5634 5638 5641 5645 5648 5653 5657 5661 5664 5667 5670 5672 5675 5677 5678
5529 5527 5526 5526 5526 5527 5527 5528 5530 5531 5533 5535 5537 5541 5544 5548 5552 5558 5564 5572 5579 5588 5598 5605 5611 5614 5618 5621 5624 5628 5632 5636 5640 5645 5649 5654 5658 5662 5665 5667 5670 5672 5673
5512 5510 5510 5508 5508 5508 5509 5509 5511 5512 5514 5515 5517 5520 5524 5528 5532 5537 5544 5551 5560 5569 5579 5588 5596 5601 5607 5611 5614 5619 5623 5627 5631 5636 5641 5646 5650 5655 5658 5662 5664 5666 5668
5494 5491 5489 5487 5487 5487 5487 5488 5490 5491 5493 5494 5497 5499 5502 5507 5512 5517 5524 5531 5539 5549 5559 5569 5578 5587 5594 5599 5603 5608 5613 5617 5622 5626 5632 5637 5642 5646 5650 5654 5657 5660 5662
5473 5468 5464 5462 5460 5459 5459 5460 5462 5466 5469 5472 5474 5476 5479 5484 5490 5496 5503 5511 5518 5527 5537 5547 5558 5570 5580 5584 5587 5593 5600 5605 5611 5616 5621 5627 5632 5637 5641 5645 5648 5651 5654
5446 5439 5435 5430 5427 5424 5422 5423 5425 5430 5436 5442 5447 5451 5454 5459 5465 5474 5481 5489 5498 5507 5518 5528 5537 5549 5563 5569 5574 5577 5582 5590 5599 5605 5609 5615 5621 5627 5631 5635 5639 5642 5646
5416 5408 5401 5395 5392 5389 5387 5388 5391 5398 5403 5408 5415 5422 5427 5432 5439 5447 5456 5466 5475 5485 5497 5507 5517 5527 5541 5553 5559 5563 5567 5577 5584 5589 5595 5601 5607 5613 5620 5625 5629 5633 5636
5388 5380 5374 5369 5364 5359 5354 5352 5351 5357 5364 5369 5377 5387 5396 5403 5412 5422 5432 5442 5452 5462 5474 5486 5499 5508 5518 5533 5543 5550 5557 5564 5567 5574 5579 5584 5591 5598 5605 5611 5617 5622 5626
5364 5359 5353 5349 5345 5339 5333 5328 5326 5326 5328 5335 5345 5358 5370 5380 5389 5399 5410 5422 5432 5442 5452 5463 5476 5488 5499 5512 5524 5532 5536 5541 5550 5557 5563 5568 5573 5580 5588 5595 5602 5609 5614
5348 5343 5338 5335 5330 5325 5320 5315 5312 5310 5311 5315 5323 5335 5348 5361 5372 5382 5393 5404 5415 5424 5433 5443 5454 5467 5480 5492 5504 5513 5521 5526 5531 5537 5543 5549 5555 5562 5569 5577 5585 5593 5599